Location: Grasslands National Park East Block
(49.0708°N, 106.5295°W)
Time: 18:40:20
(UTC-06:00)

Daily predictions for brighter satellites

Satellite Brightness Start Highest point End
(mag) Time Altitude Azimuth Time Altitude Azimuth Time Altitude Azimuth
Cosmos 2082 4.1 17:39:42 10° NNW 17:45:02 41° NE 17:50:20 10° ESE
Okean-O 3.8 17:42:41 10° S 17:46:58 48° W 17:51:18 10° NNW
ISS -2.3 17:46:38 10° WNW 17:49:45 39° SSW 17:52:50 10° SE
SJ-12 3.9 17:45:40 10° SSE 17:49:45 68° ENE 17:53:50 10° N
Cosmos 2026 Rocket 4.1 17:43:37 10° N 17:50:03 81° E 17:56:23 10° SSE
Cosmos 1500 3.6 17:46:24 10° NNW 17:50:11 68° W 17:53:54 10° S
Cosmos 1655 Rocket 4.1 17:46:30 10° N 17:52:51 63° ENE 17:59:11 10° SSE
CENTAUR R/B 3.6 17:48:42 10° NW 17:55:27 35° NNE 18:02:48 10° E
BREEZE-M DEB (TANK) 2.7 17:53:27 10° W 17:55:46 87° N 17:59:55 10° E
Cosmos 2227 Rocket 2.2 17:51:18 10° NNW 17:56:56 59° ENE 18:02:30 10° SE
Cosmos 1455 Rocket 3.4 17:53:25 10° N 17:57:42 44° ENE 18:01:54 10° SSE
NOSS 2-3 (C) 4.0 17:53:25 10° SW 17:58:12 89° SE 18:03:59 10° NE
ERS-2 3.8 17:57:38 10° E 17:59:44 15° ENE 18:01:52 10° NNE
CZ-2C R/B 3.0 17:55:23 10° S 18:00:33 67° WSW 18:05:41 10° NNW
USA 161 1.4 17:58:36 10° NNE 18:01:30 81° ESE 18:04:30 10° S
Cosmos 1544 Rocket 3.7 17:57:44 10° N 18:02:01 52° ENE 18:06:15 10° SSE
Cosmos 1271 Rocket 2.7 17:59:37 10° N 18:03:23 59° ENE 18:07:11 10° SSE
Cosmos 2219 4.1 17:58:20 10° NW 18:03:50 56° WSW 18:09:18 10° S
CORIOLIS 4.3 18:01:32 10° SE 18:06:47 53° ENE 18:12:02 10° N
Meteor 2-9 Rocket 4.4 18:04:47 10° N 18:10:09 47° ENE 18:15:20 10° SE
Ariane Rocket 3.0 18:06:26 10° SSE 18:11:27 67° ENE 18:16:29 10° N
Cosmos 1898 Rocket 3.9 18:06:23 10° SSW 18:11:35 68° WNW 18:16:52 10° NNE
YAOGAN 1 3.1 18:08:29 10° SE 18:12:24 35° ENE 18:16:21 10° N
Meteor 1-12 Rocket 4.5 18:09:25 10° NNW 18:15:07 79° W 18:20:52 10° S
Cosmos 1943 Rocket 3.9 18:12:09 10° WSW 18:16:55 27° NW 18:21:43 10° NNE
Cosmos 1269 Rocket 4.3 18:12:01 10° NNW 18:17:10 47° ENE 18:22:16 10° SE
AQUARIUS 4.1 18:13:33 10° SSE 18:18:01 70° ENE 18:22:30 10° N
Cosmos 389 Rocket 2.8 18:15:23 10° NNW 18:18:52 67° W 18:22:17 10° S
Cosmos 1980 Rocket 3.9 18:16:59 10° ESE 18:18:59 12° E 18:19:35 12° E
Cosmos 1937 Rocket 3.7 18:16:09 10° SSW 18:21:19 75° WNW 18:26:30 10° NNE
Okean 1 3.7 18:17:28 10° SSW 18:21:24 66° W 18:25:23 10° N
Cosmos 1666 2.6 18:18:34 10° N 18:22:21 85° E 18:26:05 10° S
Cosmos 1125 Rocket 4.2 18:18:36 10° SSE 18:23:21 35° ESE 18:27:27 13° NE
Cosmos 2297 Rocket 2.1 18:17:52 10° NNW 18:23:35 78° ENE 18:29:14 10° SSE
USA 238 DEB 4.0 18:16:56 10° NW 18:24:01 76° SW 18:31:11 10° SSE
USA 238 4.0 18:17:02 10° NW 18:24:08 76° SW 18:31:18 10° SSE
COSMO-SKYMED 1 3.8 18:21:49 15° NE 18:24:12 22° E 18:27:37 10° SE
Cosmos 1484 Rocket 2.8 18:21:00 10° SSE 18:25:01 90° ENE 18:29:04 10° NNW
CZ-2C R/B 4.3 18:22:17 10° NNE 18:26:40 38° E 18:31:05 10° SSE
Gblst 52 Del rocket 4.2 18:21:09 10° WNW 18:26:43 87° NNE 18:32:45 10° ESE
Cosmos 1048 Rocket 4.0 18:22:13 10° NNW 18:27:37 67° ENE 18:32:58 10° SSE
Cosmos 1818 4.4 18:24:23 10° WSW 18:29:36 45° NW 18:34:39 11° NNE
SJ 16-02 2.0 18:28:20 10° SSE 18:32:21 35° ESE 18:35:02 18° NE
Cosmos 1656 4.2 18:27:53 10° S 18:32:57 37° ESE 18:36:33 17° NE
Cosmos 1975 Rocket 3.8 18:30:34 10° SSW 18:34:58 57° WNW 18:39:25 10° N
IRS-1A Rocket 4.2 18:30:32 10° SSE 18:36:03 71° ENE 18:41:34 10° NNW
Cosmos 1975 4.4 18:32:28 10° NNW 18:36:15 39° W 18:40:01 10° SSW
SOZ 4.4 18:33:15 10° WNW 18:36:35 48° N 18:37:29 30° ENE
Cosmos 372 Rocket 4.3 18:34:36 10° S 18:39:32 44° ESE 18:43:10 17° NE
Cosmos 2279 Rocket 4.2 18:35:09 10° SSW 18:41:24 76° W 18:47:42 10° N
Cosmos 724 4.4 18:36:44 10° NW 18:42:33 79° SW 18:48:21 10° SSE
SMAP 3.4 18:38:42 10° S 18:43:19 68° WSW 18:47:59 10° NNW
NOAA 15 4.5 18:38:39 10° SSE 18:43:53 80° ENE 18:49:10 10° NNW
COSMOS 2455 4.3 18:40:44 10° NNW 18:44:48 18° NNE 18:46:22 16° NE
Meteor 2-4 Rocket 3.5 18:46:22 10° S 18:51:44 70° E 18:57:05 10° NNE
NOSS 3-2 (A) 4.1 18:45:21 10° NW 18:52:45 84° SW 19:00:55 10° SE
Cosmos 1025 Rocket 3.7 18:52:54 10° SSE 18:56:42 32° E 18:56:56 31° E
NOAA 12 4.1 18:51:49 10° SE 18:56:55 54° ENE 19:02:02 10° N
ALOS 2.3 18:52:58 10° SSE 18:57:31 54° ENE 19:02:05 10° N
Meteor 1-28 Rocket 3.2 18:54:35 11° N 18:58:10 79° WNW 19:01:56 10° SSW
Cosmos 2263 Rocket 3.4 18:55:21 10° N 18:59:25 21° NE 18:59:25 21° NE
NOSS 3-2 (C) 4.0 18:53:03 10° NW 19:00:28 88° NE 19:08:38 10° SE
Meteor 1-13 Rocket 4.3 18:56:38 10° SSW 19:02:15 79° WNW 19:08:02 10° N
Cosmos 2369 3.7 18:57:05 10° SSW 19:02:43 70° ESE 19:06:28 22° NE
Cosmos 1536 Rocket 3.5 18:58:46 10° S 19:03:08 87° W 19:07:21 11° N
Cosmos 2278 3.7 18:57:39 10° SSW 19:03:17 67° ESE 19:06:54 23° NE
PKM 4.1 18:58:30 10° WSW 19:03:35 55° NNW 19:04:32 37° NNE
CZ-4 R/B 2.2 18:59:56 10° S 19:03:43 51° W 19:07:38 10° NNW
NOSS 5 (C) 4.3 19:01:59 10° SSW 19:05:34 59° SE 19:05:53 55° E
FENGYUN 3A 3.6 19:01:10 10° SSE 19:06:29 65° ENE 19:11:48 10° N
ATLAS 3B R/B 3.8 19:00:21 10° NW 19:06:39 44° WSW 19:12:45 10° S
METEOR-M 4.2 19:02:18 10° SSE 19:07:39 82° WSW 19:13:02 10° NNW
EO 1 Del DPAF 3.5 19:08:52 45° E 19:08:53 45° E 19:12:33 10° S
ATLAS 2AS CENTAUR R/B 3.3 19:02:35 10° SW 19:10:30 72° NW 19:16:35 20° NE
SKYMED 2 3.5 19:10:25 29° NNE 19:12:34 64° ESE 19:16:52 10° S
Meteor 1-15 Rocket 4.3 19:08:53 10° NNW 19:14:52 89° ENE 19:20:47 10° S
Cosmos 1515 3.7 19:11:20 10° S 19:14:56 55° ESE 19:14:56 55° ESE
DNEPR-1 R/B 3.9 19:11:46 10° NW 19:16:40 73° NE 19:20:49 20° SE
Nadezhda 2 Rocket 4.4 19:12:00 10° N 19:18:20 78° E 19:24:44 10° SSE
Abrixas rocket 2.2 19:16:44 10° W 19:19:50 78° SW 19:19:50 78° SW
Cosmos 1697 Rocket 2.7 19:15:24 10° S 19:20:56 58° ESE 19:22:52 38° NE
Okean 2 3.3 19:20:28 10° S 19:24:16 59° ESE 19:24:16 59° ESE
Landsat 4 3.8 19:24:56 40° N 19:26:15 78° WNW 19:30:03 10° SSW
BREEZE-M DEB (TANK) 2.9 19:25:10 10° W 19:27:51 87° N 19:28:46 55° E
NOSS 8 (A) 4.5 19:24:58 10° SW 19:27:57 71° W 19:27:57 71° W
NOSS 3-4 (A) 3.6 19:25:36 10° SSW 19:31:39 56° ESE 19:33:16 44° ENE
NOSS 3-4 (C) 3.6 19:25:42 10° SSW 19:31:45 55° ESE 19:33:20 44° ENE
ERS-2 2.8 19:29:24 10° S 19:33:00 56° WSW 19:36:39 10° NNW
Gbstr 26 Del rocket 4.4 19:31:21 10° SW 19:39:10 63° SSE 19:41:19 45° E
Cosmos 2227 Rocket 4.4 19:36:00 10° NW 19:40:36 26° WSW 19:45:09 10° SSW
SPOT 3 Rocket 3.9 19:37:07 10° S 19:42:15 64° WSW 19:47:24 10° NNW
FengYun 1-2 T 4.1 19:41:07 10° SSE 19:46:44 76° ENE 19:52:25 10° NNW
CENTAUR R/B 3.0 19:39:30 10° NW 19:47:16 81° NE 19:51:51 31° SE
Cosmos 2251 Rocket 3.4 19:48:03 10° NNW 19:53:23 87° ENE 19:54:11 65° SSE
Cosmos 494 Rocket 4.4 19:51:33 10° NNW 19:56:47 62° WSW 20:01:57 10° S
COSMO-SKYMED 1 3.6 19:59:01 31° NNW 20:00:34 43° WNW 20:04:41 10° SW
Cosmos 1980 Rocket 2.2 19:56:17 10° SSW 20:01:25 67° SSE 20:01:25 67° SSE
S3M 4.4 19:57:38 10° S 20:01:52 44° SSE 20:01:52 44° SSE
SJ 16-02 3.1 20:07:09 10° WSW 20:11:00 29° WNW 20:12:04 26° NNW
COSMOS 2455 4.2 20:26:25 10° NNW 20:29:31 29° N 20:29:31 29° N
Cosmos 1553 Rocket 4.2 20:30:52 10° SSW 20:37:15 70° WNW 20:37:23 70° WNW
Cosmos 2263 Rocket 3.7 20:38:41 10° NNW 20:41:08 27° NNW 20:41:08 27° NNW
Cosmos 1745 Rocket 4.4 20:39:56 10° NNW 20:46:01 58° W 20:46:07 58° W
ATLAS 2AS CENTAUR R/B 4.1 20:55:42 10° W 21:02:55 34° NNW 21:04:02 33° N
Cosmos 1697 Rocket 4.3 21:00:18 10° WSW 21:04:38 30° WNW 21:04:38 30° WNW
CENTAUR R/B 4.4 21:30:45 10° NW 21:37:35 32° WSW 21:39:08 30° SW
